Millbury, Ohio, United States (43447)
Lat: 41.57N, Lon: 83.42W
Wx Zone: OHZ006
Local Info
Past Weather Observations for Today

NOTE: This archive is for the closest National Weather Service station to Millbury. Information may differ from the station used for current weather conditions.

Click here for Long-term Archive

Time Weather Temperature Dewpoint Humidity Pressure Winds Precip Visibility
18:12
Overcast
Light Snow
37°F / 3°C 34°F / 1°C 87% 30.01 in
(1016 mb)
NNW 20.7 mph
(NNW 33 kph)
0.01 in
(0.25 mm)
8SM
17:53
Overcast
Light Snow
37°F / 3°C 34°F / 1°C 87% 29.98 in
(1015 mb)
N 21.9 mph
(N 35 kph)
0.04 in
(1.02 mm)
7SM
17:35
Overcast
Light Snow
37°F / 3°C 34°F / 1°C 87% 29.98 in
(1015 mb)
NNW 23 mph
(NNW 37 kph)
0.03 in
(0.76 mm)
7SM
16:53
Overcast
Light Rain
39°F / 4°C 36°F / 2°C 87% 29.95 in
(1014 mb)
N 21.9 mph
(N 35 kph)
0.04 in
(1.02 mm)
5SM
15:53
Overcast
Light Rain
43°F / 6°C 37°F / 3°C 81% 29.92 in
(1013 mb)
NNW 13.8 mph
(NNW 22 kph)
0.01 in
(0.25 mm)
10SM
15:50
Overcast
Light Rain
43°F / 6°C 37°F / 3°C 81% 29.92 in
(1013 mb)
NNW 12.7 mph
(NNW 20 kph)
0.01 in
(0.25 mm)
10SM
14:53
Overcast
Light Rain
43°F / 6°C 37°F / 3°C 81% 29.89 in
(1012 mb)
NNW 15 mph
(NNW 24 kph)
0.03 in
(0.76 mm)
10SM
14:04
Overcast
Light Rain
43°F / 6°C 39°F / 4°C 87% 29.89 in
(1012 mb)
NNW 10.4 mph
(NNW 17 kph)
0.00 in
(0.00 mm)
6SM
13:53
Overcast
Light Rain
43°F / 6°C 39°F / 4°C 87% 29.89 in
(1012 mb)
NNW 12.7 mph
(NNW 20 kph)
0.05 in
(1.27 mm)
6SM
13:37
Overcast
Rain
43°F / 6°C 39°F / 4°C 87% 29.89 in
(1012 mb)
NW 10.4 mph
(NW 17 kph)
0.03 in
(0.76 mm)
8SM
12:53
Overcast
Light Rain
45°F / 7°C 39°F / 4°C 81% 29.89 in
(1012 mb)
NW 8.1 mph
(NW 13 kph)
0.00 in
(0.00 mm)
7SM
11:53
Overcast
45°F / 7°C 39°F / 4°C 81% 29.89 in
(1012 mb)
NNW 9.2 mph
(NNW 15 kph)
0.01 in
(0.25 mm)
10SM
11:38
Overcast
Light Rain
45°F / 7°C 39°F / 4°C 81% 29.89 in
(1012 mb)
NW 8.1 mph
(NW 13 kph)
0.01 in
(0.25 mm)
8SM
10:53
Overcast
Light Rain
45°F / 7°C 39°F / 4°C 81% 29.89 in
(1012 mb)
WNW 6.9 mph
(WNW 11 kph)
0.02 in
(0.51 mm)
5SM
10:48
Overcast
Light Rain
45°F / 7°C 39°F / 4°C 81% 29.92 in
(1013 mb)
W 6.9 mph
(W 11 kph)
0.02 in
(0.51 mm)
4SM
10:30
Overcast
45°F / 7°C 39°F / 4°C 81% 29.92 in
(1013 mb)
SSW 6.9 mph
(SSW 11 kph)
0.01 in
(0.25 mm)
7SM
10:21
Overcast
Light Rain
45°F / 7°C 39°F / 4°C 81% 29.92 in
(1013 mb)
SSW 8.1 mph
(SSW 13 kph)
0.01 in
(0.25 mm)
6SM
09:53
Overcast
Light Rain
43°F / 6°C 39°F / 4°C 87% 29.92 in
(1013 mb)
SSW 8.1 mph
(SSW 13 kph)
0.03 in
(0.76 mm)
6SM
09:11
Overcast
Light Rain
43°F / 6°C 37°F / 3°C 81% 29.92 in
(1013 mb)
SSW 6.9 mph
(SSW 11 kph)
0.02 in
(0.51 mm)
8SM
09:00
Overcast
Rain
43°F / 6°C 37°F / 3°C 81% 29.92 in
(1013 mb)
SW 8.1 mph
(SW 13 kph)
0.02 in
(0.51 mm)
4SM
08:53
Overcast
Light Rain
43°F / 6°C 37°F / 3°C 81% 29.92 in
(1013 mb)
SSW 8.1 mph
(SSW 13 kph)
0.01 in
(0.25 mm)
7SM
07:53
Overcast
Light Rain
45°F / 7°C 36°F / 2°C 71% 29.92 in
(1013 mb)
SW 8.1 mph
(SW 13 kph)
0.00 in
(0.00 mm)
10SM
06:53
Overcast
45°F / 7°C 36°F / 2°C 71% 29.92 in
(1013 mb)
SW 8.1 mph
(SW 13 kph)
- 10SM
05:53
Overcast
45°F / 7°C 36°F / 2°C 71% 29.95 in
(1014 mb)
SW 6.9 mph
(SW 11 kph)
- 10SM
04:53
Overcast
45°F / 7°C 36°F / 2°C 71% 29.95 in
(1014 mb)
SW 5.8 mph
(SW 9 kph)
- 10SM
03:53
Overcast
45°F / 7°C 36°F / 2°C 71% 29.98 in
(1015 mb)
SW 6.9 mph
(SW 11 kph)
- 10SM
02:53
Overcast
45°F / 7°C 36°F / 2°C 71% 29.98 in
(1015 mb)
SW 4.6 mph
(SW 7 kph)
- 10SM
01:53
Overcast
45°F / 7°C 37°F / 3°C 76% 30.01 in
(1016 mb)
SW 5.8 mph
(SW 9 kph)
- 10SM
00:53
Overcast
45°F / 7°C 36°F / 2°C 71% 30.01 in
(1016 mb)
SW 5.8 mph
(SW 9 kph)
- 10SM
Time Weather Temperature Dewpoint Humidity Pressure Winds Precip Visibility


Weather for websites

WeatherForYou.com, LLC is not responsible for any damages or problems caused by this service. Current weather conditions are obtained from the closest station including government and personal stations which may have varying degrees of accuracy. Weather forecasts are derived from the NOAA NDFD. Like all things, this site belongs to Jesus Christ... He just trusts me to maintain it. If you have any questions or comments email webmaster@weatherforyou.com

Copyright © 2014, WeatherForYou.com LLC. All rights reserved.